Tracking 25650 objects as of 16-May-2022
HD Live streaming from Space Station
objects crossing your sky now

LEMUR 2 JOBANPUTRA

Track LEMUR 2 JOBANPUTRA now!
10-day predictions
LEMUR 2 JOBANPUTRA is classified as:


NORAD ID: 41997
Int'l Code: 2017-008BB
Perigee: 465.5 km
Apogee: 473.5 km
Inclination: 97.3 °
Period: 93.8 minutes
Semi major axis: 6840 km
RCS: Unknown
Launch date: February 15, 2017
Source: United States (US)
Launch site: SRIHARIKOTA (SRI)
aabbcc
Your satellite tracking list
Your tracking list is empty




NASA's NSSDC Master Catalog

Two Line Element Set (TLE):
1 41997U 17008BB  22135.70121522  .00027847  00000-0  83288-3 0  9999
2 41997  97.2721 202.2252 0005819  11.8253 348.3126 15.34510679291390
Source of the keplerian elements: AFSPC